カタログに戻る

YAOGAN-36 05C

運用中軍事VLEO
NORAD 57456·PAYLOAD·🇨🇳 China

打ち上げ Jul 26, 2023 から Xichang Satellite Launch Center

Loading…

次のパス (今後24時間)

TLE

最新Source: Space-Track

元期: Sep 14, 2026, 09:57 UTC

1 57456U 23106E   26257.41466016  .00004051  00000-0  19987-3 0  9996
2 57456  34.9927 244.5554 0000714  56.7445 303.3336 15.17367904174427

AllMySatでYAOGAN-36 05Cをリアルタイム追跡

Download on the App Store